Weather reports worldwide

Advertisment
Redesdale Camp, United Kingdom (3230): temperature & dewpoint: 20.04.2018 23:00:00 - 26.04.2018 23:00:00 (BST)Redesdale Camp, United Kingdom (3230): temperature -20cm & temperature -100cm: 20.04.2018 23:00:00 - 26.04.2018 23:00:00 (BST)Redesdale Camp, United Kingdom (3230): wind speed & gusts: 20.04.2018 23:00:00 - 26.04.2018 23:00:00 (BST)Redesdale Camp, United Kingdom (3230): wind direction: 20.04.2018 23:00:00 - 26.04.2018 23:00:00 (BST)Redesdale Camp, United Kingdom (3230): reduced air pressure: 20.04.2018 23:00:00 - 26.04.2018 23:00:00 (BST)Redesdale Camp, United Kingdom (3230): visibility: 20.04.2018 23:00:00 - 26.04.2018 23:00:00 (BST)Redesdale Camp, United Kingdom (3230): precipitation: 20.04.2018 23:00:00 - 26.04.2018 23:00:00 (BST)
Date & Time tt [°C] td [°C] tt -20cm [°C] tt -100cm [°C] ff [km/h] ff [kn] fx [km/h] fx [kn] dd ppp [hPa] vv [km] rr [mm]
26.04.2018 23:00:00 4,7 1,6 - - 8 4 - - W 1010,5 30 0,0
26.04.2018 22:00:00 5,2 1,9 - - 13 7 - - WSW 1010,4 30 0,0
26.04.2018 21:00:00 5,8 1,7 - - 9 5 - - SSW 1010,2 40 0,0
26.04.2018 20:00:00 8,0 2,0 - - 11 6 - - WSW 1009,2 40 0,0
26.04.2018 19:00:00 8,9 3,6 - - 18 10 - - WSW 1008,6 50 0,0
26.04.2018 18:00:00 10,2 5,6 - - 18 10 46 25 SW 1007,9 50 0,2
26.04.2018 17:00:00 9,4 5,6 - - 11 6 48 26 W 1007,8 50 0,0
26.04.2018 16:00:00 10,4 5,7 - - 29 16 54 29 SW 1007,6 40 0,0
26.04.2018 15:00:00 8,8 6,8 - - 22 12 55 30 WSW 1007,7 30 0,2
26.04.2018 14:00:00 11,0 4,5 - - 22 12 54 29 WSW 1006,9 50 0,0
26.04.2018 13:00:00 8,7 4,9 - - 22 12 48 26 WSW 1007,2 25 0,0
26.04.2018 12:00:00 9,4 3,9 - - 28 15 59 32 WSW 1006,7 35 0,0
26.04.2018 11:00:00 8,9 4,1 - - 22 12 50 27 WSW 1006,7 45 0,0
26.04.2018 10:00:00 6,8 3,8 9,0 7,4 21 11 - - WSW 1006,7 28 0,0
26.04.2018 09:00:00 6,4 3,5 - - 21 11 48 26 WSW 1006,4 30 0,0
26.04.2018 08:00:00 5,9 3,5 - - 22 12 46 25 WSW 1006,2 35 0,0
26.04.2018 07:00:00 5,2 3,2 - - 16 9 - - WSW 1006,1 30 0,0
26.04.2018 06:00:00 5,2 3,2 - - 22 12 46 25 WSW 1005,9 35 0,0
26.04.2018 05:00:00 5,3 3,5 - - 18 10 - - SW 1005,9 30 0,0
26.04.2018 04:00:00 5,3 3,5 - - 18 10 - - SW 1005,9 35 0,0
26.04.2018 03:00:00 5,5 3,9 - - 13 7 - - SW 1005,9 35 0,0
26.04.2018 02:00:00 5,2 3,9 - - 16 9 - - WSW 1005,9 40 0,0
26.04.2018 01:00:00 5,1 4,0 - - 13 7 - - WSW 1006,0 40 0,2
26.04.2018 00:00:00 3,8 2,8 - - 5 3 - - WSW 1006,4 50 0,0
25.04.2018 23:00:00 4,3 3,2 - - 9 5 - - W 1006,2 50 0,0
25.04.2018 22:00:00 5,1 3,9 - - 11 6 - - WSW 1005,6 50 0,2
25.04.2018 21:00:00 5,8 4,3 - - 11 6 - - WSW 1005,4 45 0,0
25.04.2018 20:00:00 5,9 3,8 - - 15 8 - - WSW 1004,9 50 0,0
25.04.2018 19:00:00 6,6 4,1 - - 18 10 - - SW 1004,7 50 0,2
25.04.2018 18:00:00 4,8 3,1 - - 11 6 - - W 1005,8 8 1,4
25.04.2018 17:00:00 6,9 5,2 - - 26 14 46 25 SW 1004,6 3,2 0,6
25.04.2018 16:00:00 7,0 4,3 - - 28 15 50 27 SW 1004,9 1,6 0,4
25.04.2018 15:00:00 9,2 4,0 - - 26 14 54 29 SW 1004,6 4,8 0,2
25.04.2018 14:00:00 11,4 4,2 - - 28 15 50 27 WSW 1003,9 50 0,0
25.04.2018 13:00:00 10,4 5,3 - - 26 14 48 26 SW 1004,3 40 0,0
25.04.2018 12:00:00 7,7 5,0 - - 21 11 - - WSW 1005,3 3,7 0,4
25.04.2018 11:00:00 9,5 4,8 - - 22 12 - - SW 1005,1 40 0,0
25.04.2018 10:00:00 8,7 5,0 9,0 7,2 18 10 - - WSW 1005,2 40 0,0
25.04.2018 09:00:00 7,6 4,4 - - 18 10 - - WSW 1005,3 40 0,0
25.04.2018 08:00:00 6,6 4,3 - - 9 5 - - WSW 1005,5 40 0,0
25.04.2018 07:00:00 6,0 4,1 - - 9 5 - - WSW 1005,1 40 0,0
25.04.2018 06:00:00 5,8 4,5 - - 5 3 - - NNW 1004,9 40 0,0
25.04.2018 05:00:00 5,8 4,5 - - 5 3 - - W 1004,8 45 0,0
25.04.2018 04:00:00 6,5 4,9 - - 9 5 - - WSW 1004,7 26 0,0
25.04.2018 03:00:00 6,5 5,1 - - 4 2 - - S 1004,6 40 0,0
25.04.2018 02:00:00 6,5 4,7 - - 5 3 - - SW 1004,8 45 0,0
25.04.2018 01:00:00 6,3 4,7 - - 5 3 - - W 1004,8 35 0,0
25.04.2018 00:00:00 6,1 4,5 - - 11 6 - - WSW 1004,8 40 0,0
24.04.2018 23:00:00 6,0 3,9 - - 8 4 - - NW 1004,9 45 0,0
24.04.2018 22:00:00 7,0 4,3 - - 4 2 - - WSW 1005,0 45 0,0
24.04.2018 21:00:00 7,0 4,7 - - 5 3 - - WSW 1005,2 45 0,0
24.04.2018 20:00:00 7,4 5,0 - - 9 5 - - SSW 1005,1 40 0,0
24.04.2018 19:00:00 8,2 4,9 - - 11 6 - - SW 1005,3 50 0,0
24.04.2018 18:00:00 8,0 5,4 - - 13 7 - - SW 1005,8 40 0,0
24.04.2018 17:00:00 8,4 5,7 - - 21 11 - - SW 1006,3 15 0,0
24.04.2018 16:00:00 9,5 4,9 - - 18 10 - - SW 1006,6 35 0,0
24.04.2018 15:00:00 9,9 5,6 - - 18 10 - - SW 1007,2 30 0,0
24.04.2018 14:00:00 9,8 5,2 - - 21 11 - - SW 1008,0 30 0,0
24.04.2018 13:00:00 9,9 5,2 - - 16 9 - - SW 1008,4 30 0,0
24.04.2018 12:00:00 10,3 3,2 - - 21 11 - - WSW 1008,6 40 0,0
24.04.2018 11:00:00 10,9 4,4 - - 18 10 - - WSW 1008,3 40 0,0
24.04.2018 10:00:00 9,6 4,3 9,2 7,2 18 10 - - W 1008,4 50 0,0
24.04.2018 09:00:00 8,6 5,1 - - 22 12 48 26 WSW 1008,3 40 0,0
24.04.2018 08:00:00 7,5 4,7 - - 15 8 - - SW 1008,5 30 0,0
24.04.2018 07:00:00 6,4 4,1 - - 11 6 - - WSW 1007,9 30 0,0
24.04.2018 06:00:00 6,7 4,7 - - 9 5 - - WSW 1007,6 30 0,0
24.04.2018 05:00:00 6,6 4,0 - - 18 10 - - WSW 1007,1 35 0,0
24.04.2018 04:00:00 7,3 5,1 - - 24 13 50 27 WSW 1006,7 30 0,0
24.04.2018 03:00:00 7,3 5,0 - - 22 12 - - WSW 1006,3 30 0,0
24.04.2018 02:00:00 7,1 4,9 - - 18 10 - - WSW 1006,9 28 0,0
24.04.2018 01:00:00 6,7 4,3 - - 13 7 - - WSW 1007,3 30 0,0
24.04.2018 00:00:00 6,7 3,4 - - 15 8 50 27 W 1007,0 30 0,0
23.04.2018 23:00:00 8,8 6,9 - - 22 12 - - WSW 1006,0 30 0,0
23.04.2018 22:00:00 8,9 7,3 - - 18 10 48 26 WSW 1005,7 30 0,0
23.04.2018 21:00:00 9,5 8,7 - - 24 13 - - WSW 1005,1 13 0,2
23.04.2018 20:00:00 8,7 8,1 - - 15 8 - - SW 1005,4 6 0,2
23.04.2018 19:00:00 8,3 7,4 - - 16 9 - - SSW 1005,9 5 0,4
23.04.2018 18:00:00 9,9 6,6 - - 18 10 - - SSW 1006,8 45 0,0
23.04.2018 17:00:00 8,7 4,8 - - 22 12 - - SW 1008,3 15 0,0
23.04.2018 16:00:00 9,4 4,7 - - 24 13 54 29 SW 1008,1 40 0,0
23.04.2018 15:00:00 11,0 5,2 - - 24 13 52 28 SW 1008,3 50 0,0
23.04.2018 14:00:00 10,5 5,7 - - 24 13 48 26 SW 1008,9 45 0,0
23.04.2018 13:00:00 10,5 4,9 - - 22 12 46 25 SW 1009,0 50 0,0
23.04.2018 12:00:00 10,7 5,2 - - 24 13 46 25 WSW 1008,8 50 0,0
23.04.2018 11:00:00 10,6 6,1 - - 22 12 - - WSW 1008,7 50 0,0
23.04.2018 10:00:00 9,3 5,8 9,2 7,0 22 12 - - WSW 1008,4 45 0,0
23.04.2018 09:00:00 8,8 5,6 - - 16 9 46 25 WSW 1008,2 50 0,0
23.04.2018 08:00:00 7,8 5,8 - - 15 8 - - WSW 1007,7 22 0,0
23.04.2018 07:00:00 7,2 6,0 - - 16 9 - - WSW 1007,0 19 0,0
23.04.2018 06:00:00 7,2 6,0 - - 18 10 - - WSW 1006,4 16 0,2
23.04.2018 05:00:00 7,1 5,9 - - 21 11 - - WSW 1005,9 18 0,0
23.04.2018 04:00:00 7,2 5,6 - - 16 9 - - WSW 1005,8 40 0,0
23.04.2018 03:00:00 7,5 6,1 - - 21 11 - - WSW 1005,7 45 0,0
23.04.2018 02:00:00 7,3 6,3 - - 16 9 - - SW 1005,6 7 0,0
23.04.2018 01:00:00 7,2 6,2 - - 18 10 - - SW 1005,2 19 1,0
23.04.2018 00:00:00 7,8 6,7 - - 18 10 - - SW 1005,4 7 0,2
22.04.2018 23:00:00 7,9 6,3 - - 21 11 - - SW 1005,3 45 0,0
22.04.2018 22:00:00 7,7 6,4 - - 16 9 - - SW 1005,5 9 0,2
22.04.2018 21:00:00 7,9 6,3 - - 18 10 - - SW 1005,5 14 0,2
22.04.2018 20:00:00 9,5 5,5 - - 21 11 - - SW 1005,0 50 0,0
22.04.2018 19:00:00 10,0 5,4 - - 18 10 - - SW 1004,6 50 0,0
22.04.2018 18:00:00 10,8 5,6 - - 22 12 - - SW 1004,8 50 0,0
22.04.2018 17:00:00 11,3 6,6 - - 26 14 48 26 SW 1004,5 50 0,0
22.04.2018 16:00:00 10,4 6,2 - - 18 10 - - SW 1004,5 50 0,0
22.04.2018 15:00:00 11,2 7,7 - - 21 11 50 27 SW 1004,6 50 0,0
22.04.2018 14:00:00 10,2 6,1 - - 26 14 50 27 SW 1004,5 50 0,0
22.04.2018 13:00:00 9,7 5,5 - - 22 12 - - SW 1004,5 50 0,0
22.04.2018 12:00:00 8,7 5,4 - - 15 8 - - SW 1004,7 45 0,2
22.04.2018 11:00:00 9,7 3,8 - - 16 9 - - SW 1005,4 45 0,0
22.04.2018 10:00:00 9,7 3,8 9,4 6,7 16 9 - - SW 1005,6 50 0,0
22.04.2018 09:00:00 12,6 11,1 - - 16 9 - - SW 1004,5 8 0,0
22.04.2018 08:00:00 12,0 11,7 - - 11 6 - - S 1004,8 6 0,0
22.04.2018 07:00:00 10,7 10,4 - - 4 2 - - SW 1005,3 1,7 0,0
22.04.2018 06:00:00 10,4 10,2 - - 2 1 - - ESE 1005,8 3,8 0,0
22.04.2018 05:00:00 10,0 9,8 - - 4 2 - - E 1006,5 2,9 0,0
22.04.2018 04:00:00 10,4 10,0 - - 5 3 - - WSW 1007,2 0,4 0,0
22.04.2018 03:00:00 11,5 11,1 - - 8 4 - - NNE 1008,0 3,3 4,8
22.04.2018 02:00:00 9,8 9,1 - - 4 2 - - SSE 1009,5 6 0,0
22.04.2018 01:00:00 11,1 9,9 - - 9 5 - - N 1009,5 12 0,0
22.04.2018 00:00:00 10,9 9,3 - - 4 2 - - NE 1010,9 11 0,0
21.04.2018 23:00:00 11,0 9,0 - - 4 2 - - SE 1011,7 11 0,0
21.04.2018 22:00:00 11,9 9,3 - - 4 2 - - SE 1012,4 12 0,0
21.04.2018 21:00:00 12,8 9,3 - - 5 3 - - ESE 1012,9 15 0,0
21.04.2018 20:00:00 14,2 9,8 - - 13 7 - - ESE 1013,2 18 0,0
21.04.2018 19:00:00 15,4 9,7 - - 18 10 - - ESE 1013,8 21 0,0
21.04.2018 18:00:00 17,4 9,8 - - 22 12 - - SSE 1014,4 24 0,0
21.04.2018 17:00:00 17,2 9,0 - - 21 11 - - SE 1015,2 27 0,0
21.04.2018 16:00:00 17,5 8,7 - - 24 13 - - SE 1015,9 35 0,0
21.04.2018 15:00:00 17,6 8,2 - - 22 12 - - SE 1017,2 40 0,0
21.04.2018 14:00:00 15,8 5,9 - - 15 8 - - SSE 1018,5 40 0,0
21.04.2018 13:00:00 15,3 5,0 - - 18 10 - - SSE 1019,5 45 0,0
21.04.2018 12:00:00 15,0 5,8 - - 15 8 - - S 1020,5 45 0,0
21.04.2018 11:00:00 14,4 7,7 - - 18 10 - - SE 1021,3 40 0,0
21.04.2018 10:00:00 11,7 7,4 9,0 6,5 8 4 - - SE 1022,1 35 0,0
21.04.2018 09:00:00 9,1 6,4 - - 4 2 - - SE 1022,7 30 0,0
21.04.2018 08:00:00 5,9 5,4 - - 4 2 - - S 1023,3 30 0,0
21.04.2018 07:00:00 2,7 2,4 - - 4 2 - - N 1023,9 19 0,0
21.04.2018 06:00:00 1,9 1,5 - - 5 3 - - N 1024,0 21 0,0
21.04.2018 05:00:00 2,6 2,3 - - 4 2 - - N 1024,0 23 0,0
21.04.2018 04:00:00 1,9 1,4 - - 2 1 - - ENE 1024,6 17 0,0
21.04.2018 03:00:00 3,0 2,3 - - 5 3 - - N 1024,4 18 0,0
21.04.2018 02:00:00 4,3 3,5 - - 5 3 - - NNW 1024,7 29 0,0
21.04.2018 01:00:00 5,1 4,3 - - 5 3 - - NNW 1024,9 30 0,0
21.04.2018 00:00:00 3,4 2,1 - - 4 2 - - NW 1025,2 26 0,0
20.04.2018 23:00:00 4,9 3,2 - - 5 3 - - N 1024,8 30 0,0

tt = temperature
td = dewpoint
tt -20cm = temperature -20cm
tt -100cm = temperature -100cm
ff = wind speed
fx = gusts
dd = wind direction
ppp = reduced air pressure
vv = visibility
rr = precipitation

Next stations